Regional Weather Roundup
Issued by NWS

Home | Current Version | Previous Version | Graphics & Text | Print | Product List | Glossary On
Versions: 1 2 3 4 5 6 7 8 9 10 11 12 13 14 15 16 17 18 19 20 21 22 23 24 25 26 27
000
ASUS45 KBOU 181006
RWRCO

WEATHER ROUNDUP FOR COLORADO
NATIONAL WEATHER SERVICE DENVER/BOULDER CO
400 AM MDT FRI APR 18 2014

NOTE: "FAIR" INDICATES FEW OR NO CLOUDS BELOW 12000 FEET WITH NO
SIGNIFICANT WEATHER AND/OR OBSTRUCTIONS TO VISIBILITY.

COZ001>005-013-030-031-181100-
...NORTHWEST COLORADO...

CITY           SKY/WX    TMP DP  RH WIND       PRES   REMARKS
CRAIG          PTCLDY    33  25  72 E6        30.05F WCI  28
HAYDEN         PTCLDY    37  23  56 E14       30.08F
MEEKER         CLEAR     32  26  78 NE7       30.06F WCI  26
MOUNT WERNER   PTCLDY    37  14  38 SW17      30.23S
STEAMBOAT SPGS PTCLDY    33  22  64 CALM      30.10S
WALDEN         CLEAR     30  21  69 SE6       30.11S WCI  24
$$

COZ006>008-011-181100-
...WEST CENTRAL VALLEYS...

CITY           SKY/WX    TMP DP  RH WIND       PRES   REMARKS
GRAND JUNCTION CLEAR     47  26  44 E16       30.01S
MONTROSE       CLEAR     41  27  57 SE5       30.09F
EAGLE          CLEAR     34  25  69 CALM      30.16S
RIFLE          CLEAR     36  27  69 SE5       30.08F
DELTA          CLEAR     46  28  48 E12       30.07S
NUCLA            N/A     43  25  49 SE5       30.11S
$$

COZ017>023-064>068-181100-
...SOUTHWEST COLORADO...

CITY           SKY/WX    TMP DP  RH WIND       PRES   REMARKS
DURANGO        CLEAR     32  18  56 E3        30.16F
CORTEZ         CLEAR     33  23  66 CALM      30.11S
PAGOSA SPRINGS CLEAR     32  19  58 CALM      30.23S
TELLURIDE      NOT AVBL
WOLF CREEK PAS CLEAR     28  14  54 SW21      30.35R WCI  15
$$

COZ009-010-012-014-032>034-037-058>063-181100-
...CENTRAL COLORADO...

CITY           SKY/WX    TMP DP  RH WIND       PRES   REMARKS
ASPEN          CLEAR     35  22  58 SW8       30.15F WCI  29
BUENA VISTA    CLEAR     33  22  63 E3        30.19S
COPPER MTN     CLEAR     34  18  51 S12G17    30.31S WCI  25
BERTHOUD PASS  FAIR      27  18  69 W24G31    30.30S WCI  12
COTTONWOOD PAS CLEAR     43  18  36 W12G17    30.24S
GUNNISON       CLEAR     27  19  74 CALM      30.25S
KREMMLING      CLEAR     32  21  64 CALM      30.15R
LEADVILLE      CLEAR     27  15  61 CALM      30.23S
MONARCH PASS   CLEAR     28  18  64 SW15      30.43S WCI  17
SALIDA         CLEAR     40  26  56 N9        30.24S
SUNLIGHT       CLEAR     34  23  64 CALM      30.26S
WILKERSON PASS CLEAR     32  19  59 SW12G22   30.28S WCI  23
$$

COZ069>075-181100-
...SAN LUIS VALLEY/SANGRE DE CRISTO MOUNTAINS...

CITY           SKY/WX    TMP DP  RH WIND       PRES   REMARKS
ALAMOSA        CLEAR     32  27  81 W5        30.20S WCI  27
LA VETA PASS   CLEAR     32  23  69 SW16G25   30.23S WCI  21
SAGUACHE       NOT AVBL
$$

COZ035-036-038>040-181100-
...NORTHERN COLORADO FRONT RANGE...

CITY           SKY/WX    TMP DP  RH WIND       PRES   REMARKS
DENVER INTL AP PTCLDY    46  29  51 SW14      29.99S
DMNS CITY PARK   N/A     46  30  54 SE5       29.99S
AURORA         PTCLDY    45  28  53 S10       30.01S
FRONT RANGE AP NOT AVBL
ERIE MUNI ARPT CLEAR     40  32  72 SW3       29.98S
BOULDER MUN AP CLEAR     41  30  65 CALM      29.97F
CENTENNIAL     CLEAR     43  27  53 S8        30.02S
BROOMFIELD     CLEAR     45  28  53 W6        29.99F
FORT COLLINS   CLEAR     37  30  75 N6        30.00S
LONGMONT       CLEAR     37  32  83 CALM      30.00S
$$

COZ041-046-047-076>085-087-088-181100-
...PIKES PEAK/PALMER DIVIDE AND SOUTHERN FOOTHILLS...

CITY           SKY/WX    TMP DP  RH WIND       PRES   REMARKS
COLO. SPRINGS  PTCLDY    33  29  85 NE6       30.08F WCI  28
A. F. ACADEMY  CLEAR     31  30  96 E3        30.07F
ELLICOTT       NOT AVBL
FALCON         CLEAR     31  30  94 NW3       30.09F
FORT CARSON    CLEAR     33  32  94 NW7       30.06F WCI  27
LIMON          CLEAR     29  29 100 SE6       30.07F WCI  23
MONUMENT HILL  PTCLDY    36  28  75 S9        30.07S
TRINIDAD       CLEAR     43  31  62 W21       30.07S
$$

COZ042>045-048>051-090-091-181100-
...NORTHEAST COLORADO...

CITY           SKY/WX    TMP DP  RH WIND       PRES   REMARKS
GREELEY ARPT   PTCLDY    32  25  74 NW7       29.99R WCI  26
AKRON          CLEAR     38  33  82 S10       30.00S
BURLINGTON     CLEAR     38  33  82 S22       30.07F
WRAY           CLEAR     41  35  79 S13       30.04F
STERLING       CLEAR     39  36  87 S6        29.99S
HOLYOKE        CLEAR     39  36  87 S12       30.02F
FORT MORGAN    CLEAR     37  34  87 CALM      29.99F
$$

COZ086-089-092>099-181100-
...SOUTHEAST COLORADO...

CITY           SKY/WX    TMP DP  RH WIND       PRES   REMARKS
PUEBLO         CLEAR     38  35  89 N7        30.05F
LA JUNTA       CLEAR     40  34  79 SE6       30.04F
LAMAR          CLEAR     41  35  79 S10       30.06F
SPRINGFIELD      N/A     39  35  86 S20       30.10F
$$



USA.gov is the U.S. government's official web portal to all federal, state and local government web resources and services.